Regional Weather Roundup
Issued by NWS

Current Version | Previous Version | Text Only | Print | Product List | Glossary On
Versions: 1 2 3 4 5 6 7 8 9 10 11 12 13 14 15 16 17 18 19 20 21 22 23 24 25 26 27 28 29 30 31 32 33 34 35 36 37 38 39 40 41 42 43 44 45 46 47 48 49 50
580
ASUS43 KBIS 170410
RWRND

NORTH DAKOTA REGIONAL WEATHER ROUNDUP
NATIONAL WEATHER SERVICE BISMARCK ND
1100 PM CDT WED AUG 16 2017

NOTE: "FAIR" INDICATES FEW OR NO CLOUDS BELOW 12,000 FEET WITH NO
SIGNIFICANT WEATHER AND/OR OBSTRUCTIONS TO VISIBILITY.


NDZ001>003-009>011-017-170500-
NORTHWEST NORTH DAKOTA

CITY           SKY/WX    TMP DP  RH WIND       PRES   REMARKS
WILLISTON      CLOUDY    74  55  51 SE8       29.87R
MINOT          CLEAR     63  53  70 E3        29.88F
MINOT AFB      CLEAR     58  53  81 SE3       29.86F
$$

NDZ018>021-031>035-040>046-170500-
SOUTHWEST NORTH DAKOTA

CITY           SKY/WX    TMP DP  RH WIND       PRES   REMARKS
BISMARCK       CLOUDY    60  56  86 CALM      29.90S
DICKINSON      CLOUDY    62  54  74 SE10      29.92R
GARRISON         N/A     62  55  77 CALM      29.90S
HETTINGER ARPT CLEAR     63  51  65 SE3       29.96R
$$

NDZ004>008-012>016-024-026-027-054-170500-
NORTHEAST NORTH DAKOTA

CITY           SKY/WX    TMP DP  RH WIND       PRES   REMARKS
GRAND FORKS    MOCLDY    61  61 100 N5        29.83R
GRND FRKS AFB  CLOUDY    59  59 100 N6        29.84S
DEVILS LAKE    CLEAR     62  59  90 CALM      29.87S
$$

NDZ022-023-025-028>030-036>039-047>053-170500-
SOUTHEAST NORTH DAKOTA

CITY           SKY/WX    TMP DP  RH WIND       PRES   REMARKS
FARGO          CLOUDY    65  65 100 N10       29.80R
JAMESTOWN      CLOUDY    58  57  97 N5        29.86R
$$





USA.gov is the U.S. government's official web portal to all federal, state and local government web resources and services.